Regional Weather Roundup
Issued by NWS

Home | Current Version | Previous Version | Graphics & Text | Print | Product List | Glossary On
Versions: 1 2 3 4 5 6 7 8 9 10 11 12 13 14 15 16 17 18 19 20 21 22 23 24 25 26 27 28 29 30 31 32 33 34 35 36 37 38 39 40 41 42 43 44 45 46 47 48 49 50
000
ASUS43 KLMK 021702
RWRKY
KENTUCKY REGIONAL WEATHER ROUNDUP
NATIONAL WEATHER SERVICE LOUISVILLE KY
1200 PM EST MON MAR 02 2015

NOTE "FAIR" INDICATES FEW OR NO CLOUDS BELOW 12,000 FEET
WITH NO SIGNIFICANT WEATHER AND/OR OBSTRUCTIONS TO VISIBILITY.

KYZ001>023-026-027-061>063-070>075-021800-
WESTERN AND SOUTH CENTRAL KENTUCKY

CITY           SKY/WX    TMP DP  RH WIND       PRES   REMARKS
PADUCAH        SUNNY     35  19  52 NE13      30.52S WCI  26
HENDERSON      MOSUNNY   32  18  55 E7        30.54F WCI  26
OWENSBORO      SUNNY     33  19  56 NE9       30.54F WCI  25
HOPKINSVILLE   SUNNY     36  23  59 E7        30.50F WCI  30
BOWLING GREEN  SUNNY     38  23  55 NE12      30.50F WCI  30
GLASGOW        NOT AVBL
$$

KYZ024-025-028>034-038-045-046-053-021800-
NORTH CENTRAL KENTUCKY

CITY           SKY/WX    TMP DP  RH WIND       PRES   REMARKS
LOUISVILLE/SDF PTSUNNY   36  17  46 N5        30.53F WCI  32
LOUISVILLE/LOU SUNNY     35  15  44 VRB5      30.54S WCI  31
FORT KNOX      SUNNY     34  19  53 N8        30.49F WCI  27
$$

KYZ035>037-039>044-047>052-055>060-089>105-021800-
NORTHEAST KENTUCKY

CITY           SKY/WX    TMP DP  RH WIND       PRES   REMARKS
LEXINGTON      SUNNY     32  21  64 E7        30.51S WCI  26
COVINGTON      PTSUNNY   29  17  61 CALM      30.52S
FRANKFORT      SUNNY     33  19  56 VRB6      30.51F WCI  28
$$

KYZ054-064>069-076>088-106>120-021800-
SOUTHEAST KENTUCKY

CITY           SKY/WX    TMP DP  RH WIND       PRES   REMARKS
JACKSON        SUNNY     37  23  56 VRB3      30.45F
LONDON         MOSUNNY   39  25  57 NE7       30.45F WCI  34
SOMERSET       NOT AVBL
MIDDLESBORO    NOT AVBL
MONTICELLO     SUNNY     40  29  65 CALM      30.49F
$$



USA.gov is the U.S. government's official web portal to all federal, state and local government web resources and services.